Other Public Products
Issued by NWS Charleston, SC

Current Version | Previous Version | Graphics & Text | Print | Product List | Glossary On
Versions: 1 2 3 4 5 6 7 8 9 10 11 12 13 14 15 16 17 18 19 20 21 22 23 24 25 26 27 28 29 30 31 32 33 34 35 36 37 38 39 40 41 42 43 44 45 46 47 48 49 50
738
FPUS82 KCHS 131411
OPUCHS

TEST...KCHS/KSAV Gateway Observations...TEST
National Weather Service Charleston SC
900 AM EST WED DEC 13 2017

NOTE: "fair" indicates few or no clouds below 12,000 feet with no
significant weather and/or obstructions to visibility.

SCZ050-WAZ558-NCZ071-TXZ119-213-PAZ071-DCZ001-FLZ074-172-MI076-
NYZ176-178-MAZ016-IL014-TNZ027-NJZ106-GAZ044-MD014-131500-

...Gateway Observations for Charleston International...

CITY           SKY/WX    TMP DP  RH WIND       PRES   REMARKS
Chas Airport   SUNNY     39  22  50 NW8       30.07R WCI  33
Seattle        CLEAR     36  32  85 N8        30.41R WCI  30
Charlotte      MOSUNNY   33   8  35 W5        30.00R WCI  29
Dallas DFW     PTCLDY    37  28  70 S8        30.04F WCI  31
Dallas Love    PTCLDY    41  30  65 S3        30.06F
Philladelphia  MOSUNNY   24   4  42 W23G30    29.70R WCI   9
Wash National  SUNNY     25   0  33 W25G36    29.87R WCI   9
Baltimore      MOSUNNY   23   3  42 W23G30    29.80R WCI   7
Miami          SUNNY     57  41  55 N9G18     30.14R
Detroit        LGT SNOW  19  12  74 S8        29.80F WCI   9
Newark         MOSUNNY   23   6  48 W24G32    29.57R WCI   7
Laguardia      MOSUNNY   23   8  52 W18G37    29.56R WCI   9
J F K          MOSUNNY   22   5  48 W26G43    29.57R WCI   5
Boston Logan   MOSUNNY   23  10  57 W22G32    29.28R WCI   8
Ft. Lauderdale SUNNY     55  41  59 NW13      30.12R
Chicago O`Hare CLOUDY    28  14  55 S17       29.54F WCI  16
Chicago Midway CLOUDY    28  12  51 S15G23    29.58F WCI  16
Houston Bush   CLOUDY    35  34  96 CALM      30.18S
Houston Hobby  CLOUDY    38  35  89 CALM      30.18F
Nashville      MOSUNNY   28  15  58 S10       30.01F WCI  19
Atlanta        SUNNY     31  11  43 W8        30.06R WCI  23

$$

GAZ044-118-TXZ119-213-NCZ071-DCZ001-MDZ014-506-PAZ021-071-NJZ106-
NYZ176-178-MAZ106-OHZ011-021-055-MIZ076-KYZ091-ILZ014-INZ047-
MNZ060-ONZ431-131500-

...Gateway Observations for Savannah International...

CITY           SKY/WX    TMP DP  RH WIND       PRES   REMARKS
Savannah Arpt  SUNNY     39  17  41 NW9       30.10R WCI  33
Atlanta        SUNNY     31  11  43 W8        30.06R WCI  23
Charlotte      MOSUNNY   33   8  35 W5        30.00R WCI  29
Dallas DFW     PTCLDY    37  28  70 S8        30.04F WCI  31
Houston Bush   CLOUDY    35  34  96 CALM      30.18S
Wash National  SUNNY     25   0  33 W25G36    29.87R WCI   9
Wash Dulles    MOSUNNY   23   2  40 NW15G25   29.86R WCI  10
Baltimore      MOSUNNY   23   3  42 W23G30    29.80R WCI   7
Philadelphia   MOSUNNY   24   4  42 W23G30    29.70R WCI   9
Newark         MOSUNNY   23   6  48 W24G32    29.57R WCI   7
Laguardia      MOSUNNY   23   8  52 W18G37    29.56R WCI   9
J F K          MOSUNNY   22   5  48 W26G43    29.57R WCI   5
Boston         MOSUNNY   23  10  57 W22G32    29.28R WCI   8
Pittsburg      CLOUDY    18   6  59 SW9       29.82F WCI   7
Akron          CLOUDY    17   8  67 SW9       29.81F WCI   6
Cleveland      CLOUDY    19  10  68 SW10      29.85F WCI   7
Cincinnati     CLOUDY    22  12  65 S12       29.88F WCI  10
Columbus       CLOUDY    18  12  79 S8        29.90F WCI   8
Detroit        LGT SNOW  19  12  74 S8        29.80F WCI   9
Chicago O`Hare CLOUDY    28  14  55 S17       29.54F WCI  16
Minneapolis    LGT SNOW  27  25  92 N13       29.41R VSB 1   WCI  16
Indianapolis   CLOUDY    25   8  48 S13       29.79F WCI  14
Toronto Canada PTCLDY    12   3  67 NW13G21   29.71R WCI  -3

$$




USA.gov is the U.S. government's official web portal to all federal, state and local government web resources and services.